owner,sensor,date,latitude,longitude,air_temperature,qcFlag 
LUMCON,ioos:station:LUMCON:103:1,2010-06-01T00:00:00Z,30.1889,-90.1683,28.3,11111222 
LUMCON,ioos:station:LUMCON:103:1,2010-06-01T01:00:00Z,30.1889,-90.1683,27.8,11111222 
LUMCON,ioos:station:LUMCON:103:1,2010-06-01T02:00:00Z,30.1889,-90.1683,27.7,11111222 
LUMCON,ioos:station:LUMCON:103:1,2010-06-01T03:00:00Z,30.1889,-90.1683,27.7,11111222 
LUMCON,ioos:station:LUMCON:103:1,2010-06-01T04:00:00Z,30.1889,-90.1683,27.2,11111222 
LUMCON,ioos:station:LUMCON:103:1,2010-06-01T05:00:00Z,30.1889,-90.1683,27.2,11111222 
LUMCON,ioos:station:LUMCON:103:1,2010-06-01T06:00:00Z,30.1889,-90.1683,27.1,11111222 
LUMCON,ioos:station:LUMCON:103:1,2010-06-01T07:00:00Z,30.1889,-90.1683,27.0,11111222 
LUMCON,ioos:station:LUMCON:103:1,2010-06-01T08:00:00Z,30.1889,-90.1683,26.9,11111222 
LUMCON,ioos:station:LUMCON:103:1,2010-06-01T09:00:00Z,30.1889,-90.1683,26.8,11111222 
LUMCON,ioos:station:LUMCON:103:1,2010-06-01T10:00:00Z,30.1889,-90.1683,26.5,11111222 
LUMCON,ioos:station:LUMCON:103:1,2010-06-01T11:00:00Z,30.1889,-90.1683,26.6,11111222 
LUMCON,ioos:station:LUMCON:103:1,2010-06-01T12:00:00Z,30.1889,-90.1683,26.1,11111222 
LUMCON,ioos:station:LUMCON:103:1,2010-06-01T13:00:00Z,30.1889,-90.1683,27.2,11111222 
LUMCON,ioos:station:LUMCON:103:1,2010-06-01T17:00:00Z,30.1889,-90.1683,28.5,11111222 
LUMCON,ioos:station:LUMCON:103:1,2010-06-01T18:00:00Z,30.1889,-90.1683,28.5,11111222 
LUMCON,ioos:station:LUMCON:103:1,2010-06-01T22:00:00Z,30.1889,-90.1683,29.6,11111222 
LUMCON,ioos:station:LUMCON:103:1,2010-06-01T23:00:00Z,30.1889,-90.1683,28.3,11111222 
LUMCON,ioos:station:LUMCON:103:1,2010-06-02T00:00:00Z,30.1889,-90.1683,27.4,11111222 
LUMCON,ioos:station:LUMCON:103:1,2010-06-02T01:00:00Z,30.1889,-90.1683,27.0,11111222 
LUMCON,ioos:station:LUMCON:103:1,2010-06-02T02:00:00Z,30.1889,-90.1683,27.5,11111222 
LUMCON,ioos:station:LUMCON:103:1,2010-06-02T03:00:00Z,30.1889,-90.1683,27.6,11111222 
LUMCON,ioos:station:LUMCON:103:1,2010-06-02T04:00:00Z,30.1889,-90.1683,27.1,11111222 
LUMCON,ioos:station:LUMCON:103:1,2010-06-02T05:00:00Z,30.1889,-90.1683,27.1,11111222 
LUMCON,ioos:station:LUMCON:103:1,2010-06-02T06:00:00Z,30.1889,-90.1683,27.7,11111222 
LUMCON,ioos:station:LUMCON:103:1,2010-06-02T07:00:00Z,30.1889,-90.1683,27.5,11111222 
LUMCON,ioos:station:LUMCON:103:1,2010-06-02T08:00:00Z,30.1889,-90.1683,26.9,11111222 
LUMCON,ioos:station:LUMCON:103:1,2010-06-02T09:00:00Z,30.1889,-90.1683,26.9,11111222 
LUMCON,ioos:station:LUMCON:103:1,2010-06-02T10:00:00Z,30.1889,-90.1683,26.6,11111222 
LUMCON,ioos:station:LUMCON:103:1,2010-06-02T11:00:00Z,30.1889,-90.1683,26.5,11111222 
LUMCON,ioos:station:LUMCON:103:1,2010-06-02T23:00:00Z,30.1889,-90.1683,25.8,11111222 
LUMCON,ioos:station:LUMCON:103:1,2010-06-03T01:00:00Z,30.1889,-90.1683,26.1,11111222 
LUMCON,ioos:station:LUMCON:103:1,2010-06-03T02:00:00Z,30.1889,-90.1683,26.1,11111222 
LUMCON,ioos:station:LUMCON:103:1,2010-06-03T03:00:00Z,30.1889,-90.1683,26.4,11111222 
LUMCON,ioos:station:LUMCON:103:1,2010-06-03T04:00:00Z,30.1889,-90.1683,26.5,11111222 
LUMCON,ioos:station:LUMCON:103:1,2010-06-03T05:00:00Z,30.1889,-90.1683,26.6,11111222 
LUMCON,ioos:station:LUMCON:103:1,2010-06-03T06:00:00Z,30.1889,-90.1683,26.5,11111222 
LUMCON,ioos:station:LUMCON:103:1,2010-06-03T07:00:00Z,30.1889,-90.1683,26.5,11111222 
LUMCON,ioos:station:LUMCON:103:1,2010-06-03T08:00:00Z,30.1889,-90.1683,26.4,11111222 
LUMCON,ioos:station:LUMCON:103:1,2010-06-03T09:00:00Z,30.1889,-90.1683,26.4,11111222 
LUMCON,ioos:station:LUMCON:103:1,2010-06-03T10:00:00Z,30.1889,-90.1683,26.6,11111222 
LUMCON,ioos:station:LUMCON:103:1,2010-06-03T11:00:00Z,30.1889,-90.1683,26.7,11111222 
LUMCON,ioos:station:LUMCON:103:1,2010-06-03T12:00:00Z,30.1889,-90.1683,26.9,11111222 
LUMCON,ioos:station:LUMCON:103:1,2010-06-03T21:00:00Z,30.1889,-90.1683,27.3,11111222 
LUMCON,ioos:station:LUMCON:103:1,2010-06-03T22:00:00Z,30.1889,-90.1683,26.6,11111222 
LUMCON,ioos:station:LUMCON:103:1,2010-06-03T23:00:00Z,30.1889,-90.1683,26.7,11111222 
LUMCON,ioos:station:LUMCON:103:1,2010-06-04T00:00:00Z,30.1889,-90.1683,27.1,11111222 
LUMCON,ioos:station:LUMCON:103:1,2010-06-04T01:00:00Z,30.1889,-90.1683,26.9,11111222 
LUMCON,ioos:station:LUMCON:103:1,2010-06-04T02:00:00Z,30.1889,-90.1683,26.8,11111222 
LUMCON,ioos:station:LUMCON:103:1,2010-06-04T03:00:00Z,30.1889,-90.1683,26.5,11111222 
LUMCON,ioos:station:LUMCON:103:1,2010-06-04T04:00:00Z,30.1889,-90.1683,26.8,11111222 
LUMCON,ioos:station:LUMCON:103:1,2010-06-04T05:00:00Z,30.1889,-90.1683,26.7,11111222 
LUMCON,ioos:station:LUMCON:103:1,2010-06-04T06:00:00Z,30.1889,-90.1683,26.7,11111222 
LUMCON,ioos:station:LUMCON:103:1,2010-06-04T07:00:00Z,30.1889,-90.1683,26.6,11111222 
LUMCON,ioos:station:LUMCON:103:1,2010-06-04T08:00:00Z,30.1889,-90.1683,26.5,11111222 
LUMCON,ioos:station:LUMCON:103:1,2010-06-04T09:00:00Z,30.1889,-90.1683,26.7,11111222 
LUMCON,ioos:station:LUMCON:103:1,2010-06-04T10:00:00Z,30.1889,-90.1683,26.8,11111222 
LUMCON,ioos:station:LUMCON:103:1,2010-06-04T11:00:00Z,30.1889,-90.1683,26.8,11111222 
LUMCON,ioos:station:LUMCON:103:1,2010-06-04T12:00:00Z,30.1889,-90.1683,27.0,11111222 
LUMCON,ioos:station:LUMCON:103:1,2010-06-04T22:00:00Z,30.1889,-90.1683,26.2,11111222 
LUMCON,ioos:station:LUMCON:103:1,2010-06-04T23:00:00Z,30.1889,-90.1683,27.0,11111222 
LUMCON,ioos:station:LUMCON:103:1,2010-06-05T00:00:00Z,30.1889,-90.1683,26.9,11111222 
LUMCON,ioos:station:LUMCON:103:1,2010-06-05T01:00:00Z,30.1889,-90.1683,26.7,11111222 
LUMCON,ioos:station:LUMCON:103:1,2010-06-05T02:00:00Z,30.1889,-90.1683,26.6,11111222 
LUMCON,ioos:station:LUMCON:103:1,2010-06-05T03:00:00Z,30.1889,-90.1683,26.6,11111222 
LUMCON,ioos:station:LUMCON:103:1,2010-06-05T04:00:00Z,30.1889,-90.1683,26.5,11111222 
LUMCON,ioos:station:LUMCON:103:1,2010-06-05T05:00:00Z,30.1889,-90.1683,26.5,11111222 
LUMCON,ioos:station:LUMCON:103:1,2010-06-05T06:00:00Z,30.1889,-90.1683,26.5,11111222 
LUMCON,ioos:station:LUMCON:103:1,2010-06-05T07:00:00Z,30.1889,-90.1683,26.4,11111222 
LUMCON,ioos:station:LUMCON:103:1,2010-06-05T08:00:00Z,30.1889,-90.1683,26.4,11111222 
LUMCON,ioos:station:LUMCON:103:1,2010-06-05T09:00:00Z,30.1889,-90.1683,26.5,11111222 
LUMCON,ioos:station:LUMCON:103:1,2010-06-05T10:00:00Z,30.1889,-90.1683,26.5,11111222 
LUMCON,ioos:station:LUMCON:103:1,2010-06-05T11:00:00Z,30.1889,-90.1683,26.7,11111222 
LUMCON,ioos:station:LUMCON:103:1,2010-06-05T12:00:00Z,30.1889,-90.1683,27.0,11111222 
LUMCON,ioos:station:LUMCON:103:1,2010-06-05T14:00:00Z,30.1889,-90.1683,27.7,11111222 
LUMCON,ioos:station:LUMCON:103:1,2010-06-05T17:00:00Z,30.1889,-90.1683,28.2,11111222 
LUMCON,ioos:station:LUMCON:103:1,2010-06-05T18:00:00Z,30.1889,-90.1683,28.5,11111222 
LUMCON,ioos:station:LUMCON:103:1,2010-06-05T19:00:00Z,30.1889,-90.1683,27.8,11111222 
LUMCON,ioos:station:LUMCON:103:1,2010-06-05T20:00:00Z,30.1889,-90.1683,26.9,11111222 
LUMCON,ioos:station:LUMCON:103:1,2010-06-05T21:00:00Z,30.1889,-90.1683,27.6,11111222 
LUMCON,ioos:station:LUMCON:103:1,2010-06-05T22:00:00Z,30.1889,-90.1683,28.4,11111222 
LUMCON,ioos:station:LUMCON:103:1,2010-06-05T23:00:00Z,30.1889,-90.1683,28.0,11111222 
LUMCON,ioos:station:LUMCON:103:1,2010-06-06T00:00:00Z,30.1889,-90.1683,27.5,11111222 
LUMCON,ioos:station:LUMCON:103:1,2010-06-06T01:00:00Z,30.1889,-90.1683,27.4,11111222 
LUMCON,ioos:station:LUMCON:103:1,2010-06-06T02:00:00Z,30.1889,-90.1683,27.7,11111222 
LUMCON,ioos:station:LUMCON:103:1,2010-06-06T03:00:00Z,30.1889,-90.1683,27.7,11111222 
LUMCON,ioos:station:LUMCON:103:1,2010-06-06T04:00:00Z,30.1889,-90.1683,27.8,11111222 
LUMCON,ioos:station:LUMCON:103:1,2010-06-06T05:00:00Z,30.1889,-90.1683,27.7,11111222 
LUMCON,ioos:station:LUMCON:103:1,2010-06-06T06:00:00Z,30.1889,-90.1683,27.7,11111222 
LUMCON,ioos:station:LUMCON:103:1,2010-06-06T07:00:00Z,30.1889,-90.1683,27.5,11111222 
LUMCON,ioos:station:LUMCON:103:1,2010-06-06T08:00:00Z,30.1889,-90.1683,27.5,11111222 
LUMCON,ioos:station:LUMCON:103:1,2010-06-06T09:00:00Z,30.1889,-90.1683,27.4,11111222 
LUMCON,ioos:station:LUMCON:103:1,2010-06-06T10:00:00Z,30.1889,-90.1683,27.4,11111222 
LUMCON,ioos:station:LUMCON:103:1,2010-06-06T11:00:00Z,30.1889,-90.1683,27.3,11111222 
LUMCON,ioos:station:LUMCON:103:1,2010-06-06T12:00:00Z,30.1889,-90.1683,27.2,11111222 
LUMCON,ioos:station:LUMCON:103:1,2010-06-06T13:00:00Z,30.1889,-90.1683,27.7,11111222 
LUMCON,ioos:station:LUMCON:103:1,2010-06-06T14:00:00Z,30.1889,-90.1683,28.0,11111222 
LUMCON,ioos:station:LUMCON:103:1,2010-06-06T15:00:00Z,30.1889,-90.1683,28.4,11111222 
LUMCON,ioos:station:LUMCON:103:1,2010-06-06T17:00:00Z,30.1889,-90.1683,28.9,11111222 
LUMCON,ioos:station:LUMCON:103:1,2010-06-06T20:00:00Z,30.1889,-90.1683,29.3,11111222 
LUMCON,ioos:station:LUMCON:103:1,2010-06-06T21:00:00Z,30.1889,-90.1683,29.0,11111222 
LUMCON,ioos:station:LUMCON:103:1,2010-06-06T22:00:00Z,30.1889,-90.1683,28.6,11111222 
LUMCON,ioos:station:LUMCON:103:1,2010-06-06T23:00:00Z,30.1889,-90.1683,28.6,11111222 
LUMCON,ioos:station:LUMCON:103:1,2010-06-07T00:00:00Z,30.1889,-90.1683,28.6,11111222 
LUMCON,ioos:station:LUMCON:103:1,2010-06-07T01:00:00Z,30.1889,-90.1683,28.4,11111222 
LUMCON,ioos:station:LUMCON:103:1,2010-06-07T02:00:00Z,30.1889,-90.1683,27.7,11111222 
LUMCON,ioos:station:LUMCON:103:1,2010-06-07T03:00:00Z,30.1889,-90.1683,27.7,11111222 
LUMCON,ioos:station:LUMCON:103:1,2010-06-07T04:00:00Z,30.1889,-90.1683,27.5,11111222 
LUMCON,ioos:station:LUMCON:103:1,2010-06-07T05:00:00Z,30.1889,-90.1683,27.2,11111222 
LUMCON,ioos:station:LUMCON:103:1,2010-06-07T06:00:00Z,30.1889,-90.1683,27.0,11111222 
LUMCON,ioos:station:LUMCON:103:1,2010-06-07T07:00:00Z,30.1889,-90.1683,27.1,11111222 
LUMCON,ioos:station:LUMCON:103:1,2010-06-07T08:00:00Z,30.1889,-90.1683,26.9,11111222 
LUMCON,ioos:station:LUMCON:103:1,2010-06-07T09:00:00Z,30.1889,-90.1683,26.8,11111222 
LUMCON,ioos:station:LUMCON:103:1,2010-06-07T10:00:00Z,30.1889,-90.1683,27.0,11111222 
LUMCON,ioos:station:LUMCON:103:1,2010-06-07T11:00:00Z,30.1889,-90.1683,26.8,11111222 
LUMCON,ioos:station:LUMCON:103:1,2010-06-07T12:00:00Z,30.1889,-90.1683,27.5,11111222 
LUMCON,ioos:station:LUMCON:103:1,2010-06-07T16:00:00Z,30.1889,-90.1683,29.2,11111222 
LUMCON,ioos:station:LUMCON:103:1,2010-06-07T22:00:00Z,30.1889,-90.1683,30.6,11111222 
LUMCON,ioos:station:LUMCON:103:1,2010-06-07T23:00:00Z,30.1889,-90.1683,29.7,11111222 
LUMCON,ioos:station:LUMCON:103:1,2010-06-08T00:00:00Z,30.1889,-90.1683,29.0,11111222 
LUMCON,ioos:station:LUMCON:103:1,2010-06-08T01:00:00Z,30.1889,-90.1683,28.7,11111222 
LUMCON,ioos:station:LUMCON:103:1,2010-06-08T02:00:00Z,30.1889,-90.1683,28.2,11111222 
LUMCON,ioos:station:LUMCON:103:1,2010-06-08T03:00:00Z,30.1889,-90.1683,28.0,11111222 
LUMCON,ioos:station:LUMCON:103:1,2010-06-08T04:00:00Z,30.1889,-90.1683,28.0,11111222 
LUMCON,ioos:station:LUMCON:103:1,2010-06-08T05:00:00Z,30.1889,-90.1683,28.1,11111222 
LUMCON,ioos:station:LUMCON:103:1,2010-06-08T06:00:00Z,30.1889,-90.1683,28.6,11111222 
LUMCON,ioos:station:LUMCON:103:1,2010-06-08T07:00:00Z,30.1889,-90.1683,28.6,11111222 
LUMCON,ioos:station:LUMCON:103:1,2010-06-08T08:00:00Z,30.1889,-90.1683,28.5,11111222 
LUMCON,ioos:station:LUMCON:103:1,2010-06-08T09:00:00Z,30.1889,-90.1683,27.4,11111222 
LUMCON,ioos:station:LUMCON:103:1,2010-06-08T10:00:00Z,30.1889,-90.1683,27.2,11111222 
LUMCON,ioos:station:LUMCON:103:1,2010-06-08T11:00:00Z,30.1889,-90.1683,26.9,11111222 
LUMCON,ioos:station:LUMCON:103:1,2010-06-08T12:00:00Z,30.1889,-90.1683,27.9,11111222 
LUMCON,ioos:station:LUMCON:103:1,2010-06-08T23:00:00Z,30.1889,-90.1683,30.3,11111222 
LUMCON,ioos:station:LUMCON:103:1,2010-06-09T00:00:00Z,30.1889,-90.1683,30.0,11111222 
LUMCON,ioos:station:LUMCON:103:1,2010-06-09T01:00:00Z,30.1889,-90.1683,29.7,11111222 
LUMCON,ioos:station:LUMCON:103:1,2010-06-09T02:00:00Z,30.1889,-90.1683,29.6,11111222 
LUMCON,ioos:station:LUMCON:103:1,2010-06-09T03:00:00Z,30.1889,-90.1683,29.6,11111222 
LUMCON,ioos:station:LUMCON:103:1,2010-06-09T16:00:00Z,30.1889,-90.1683,29.1,11111222 
LUMCON,ioos:station:LUMCON:103:1,2010-06-09T22:00:00Z,30.1889,-90.1683,30.3,11111222 
LUMCON,ioos:station:LUMCON:103:1,2010-06-09T23:00:00Z,30.1889,-90.1683,30.3,11111222 
LUMCON,ioos:station:LUMCON:103:1,2010-06-10T00:00:00Z,30.1889,-90.1683,30.2,11111222 
LUMCON,ioos:station:LUMCON:103:1,2010-06-10T01:00:00Z,30.1889,-90.1683,29.8,11111222 
LUMCON,ioos:station:LUMCON:103:1,2010-06-10T02:00:00Z,30.1889,-90.1683,29.6,11111222 
LUMCON,ioos:station:LUMCON:103:1,2010-06-10T03:00:00Z,30.1889,-90.1683,29.6,11111222 
LUMCON,ioos:station:LUMCON:103:1,2010-06-10T04:00:00Z,30.1889,-90.1683,29.4,11111222 
LUMCON,ioos:station:LUMCON:103:1,2010-06-10T05:00:00Z,30.1889,-90.1683,29.2,11111222 
LUMCON,ioos:station:LUMCON:103:1,2010-06-10T06:00:00Z,30.1889,-90.1683,29.0,11111222 
LUMCON,ioos:station:LUMCON:103:1,2010-06-10T07:00:00Z,30.1889,-90.1683,28.9,11111222 
LUMCON,ioos:station:LUMCON:103:1,2010-06-10T08:00:00Z,30.1889,-90.1683,28.8,11111222 
LUMCON,ioos:station:LUMCON:103:1,2010-06-10T09:00:00Z,30.1889,-90.1683,28.7,11111222 
LUMCON,ioos:station:LUMCON:103:1,2010-06-10T10:00:00Z,30.1889,-90.1683,28.5,11111222 
LUMCON,ioos:station:LUMCON:103:1,2010-06-10T11:00:00Z,30.1889,-90.1683,28.4,11111222 
LUMCON,ioos:station:LUMCON:103:1,2010-06-10T16:00:00Z,30.1889,-90.1683,23.9,11111222 
LUMCON,ioos:station:LUMCON:103:1,2010-06-10T23:00:00Z,30.1889,-90.1683,30.3,11111222 
LUMCON,ioos:station:LUMCON:103:1,2010-06-11T00:00:00Z,30.1889,-90.1683,30.1,11111222 
LUMCON,ioos:station:LUMCON:103:1,2010-06-11T01:00:00Z,30.1889,-90.1683,29.6,11111222 
LUMCON,ioos:station:LUMCON:103:1,2010-06-11T02:00:00Z,30.1889,-90.1683,29.4,11111222 
LUMCON,ioos:station:LUMCON:103:1,2010-06-11T03:00:00Z,30.1889,-90.1683,29.4,11111222 
LUMCON,ioos:station:LUMCON:103:1,2010-06-11T04:00:00Z,30.1889,-90.1683,29.4,11111222 
LUMCON,ioos:station:LUMCON:103:1,2010-06-11T05:00:00Z,30.1889,-90.1683,29.2,11111222 
LUMCON,ioos:station:LUMCON:103:1,2010-06-11T06:00:00Z,30.1889,-90.1683,29.1,11111222 
LUMCON,ioos:station:LUMCON:103:1,2010-06-11T07:00:00Z,30.1889,-90.1683,28.9,11111222 
LUMCON,ioos:station:LUMCON:103:1,2010-06-11T08:00:00Z,30.1889,-90.1683,28.7,11111222 
LUMCON,ioos:station:LUMCON:103:1,2010-06-11T09:00:00Z,30.1889,-90.1683,28.6,11111222 
LUMCON,ioos:station:LUMCON:103:1,2010-06-11T10:00:00Z,30.1889,-90.1683,28.7,11111222 
LUMCON,ioos:station:LUMCON:103:1,2010-06-11T11:00:00Z,30.1889,-90.1683,28.7,11111222 
LUMCON,ioos:station:LUMCON:103:1,2010-06-11T22:00:00Z,30.1889,-90.1683,30.7,11111222 
LUMCON,ioos:station:LUMCON:103:1,2010-06-11T23:00:00Z,30.1889,-90.1683,30.8,11111222 
LUMCON,ioos:station:LUMCON:103:1,2010-06-12T00:00:00Z,30.1889,-90.1683,30.8,11111222 
LUMCON,ioos:station:LUMCON:103:1,2010-06-12T01:00:00Z,30.1889,-90.1683,30.3,11111222 
LUMCON,ioos:station:LUMCON:103:1,2010-06-12T02:00:00Z,30.1889,-90.1683,30.0,11111222 
LUMCON,ioos:station:LUMCON:103:1,2010-06-12T03:00:00Z,30.1889,-90.1683,29.9,11111222 
LUMCON,ioos:station:LUMCON:103:1,2010-06-12T04:00:00Z,30.1889,-90.1683,29.8,11111222 
LUMCON,ioos:station:LUMCON:103:1,2010-06-12T05:00:00Z,30.1889,-90.1683,29.6,11111222 
LUMCON,ioos:station:LUMCON:103:1,2010-06-12T06:00:00Z,30.1889,-90.1683,29.4,11111222 
LUMCON,ioos:station:LUMCON:103:1,2010-06-12T07:00:00Z,30.1889,-90.1683,29.2,11111222 
LUMCON,ioos:station:LUMCON:103:1,2010-06-12T08:00:00Z,30.1889,-90.1683,29.1,11111222 
LUMCON,ioos:station:LUMCON:103:1,2010-06-12T09:00:00Z,30.1889,-90.1683,29.1,11111222 
LUMCON,ioos:station:LUMCON:103:1,2010-06-12T10:00:00Z,30.1889,-90.1683,28.9,11111222 
LUMCON,ioos:station:LUMCON:103:1,2010-06-12T11:00:00Z,30.1889,-90.1683,28.9,11111222 
LUMCON,ioos:station:LUMCON:103:1,2010-06-12T16:00:00Z,30.1889,-90.1683,29.8,11111222 
LUMCON,ioos:station:LUMCON:103:1,2010-06-12T17:00:00Z,30.1889,-90.1683,29.9,11111222 
LUMCON,ioos:station:LUMCON:103:1,2010-06-12T18:00:00Z,30.1889,-90.1683,30.0,11111222 
LUMCON,ioos:station:LUMCON:103:1,2010-06-12T19:00:00Z,30.1889,-90.1683,30.3,11111222 
LUMCON,ioos:station:LUMCON:103:1,2010-06-12T20:00:00Z,30.1889,-90.1683,30.6,11111222 
LUMCON,ioos:station:LUMCON:103:1,2010-06-12T21:00:00Z,30.1889,-90.1683,30.7,11111222 
LUMCON,ioos:station:LUMCON:103:1,2010-06-12T22:00:00Z,30.1889,-90.1683,30.7,11111222 
LUMCON,ioos:station:LUMCON:103:1,2010-06-12T23:00:00Z,30.1889,-90.1683,30.5,11111222 
LUMCON,ioos:station:LUMCON:103:1,2010-06-13T00:00:00Z,30.1889,-90.1683,30.7,11111222 
LUMCON,ioos:station:LUMCON:103:1,2010-06-13T01:00:00Z,30.1889,-90.1683,30.3,11111222 
LUMCON,ioos:station:LUMCON:103:1,2010-06-13T02:00:00Z,30.1889,-90.1683,30.2,11111222 
LUMCON,ioos:station:LUMCON:103:1,2010-06-13T03:00:00Z,30.1889,-90.1683,30.1,11111222 
LUMCON,ioos:station:LUMCON:103:1,2010-06-13T04:00:00Z,30.1889,-90.1683,29.8,11111222 
LUMCON,ioos:station:LUMCON:103:1,2010-06-13T05:00:00Z,30.1889,-90.1683,29.7,11111222 
LUMCON,ioos:station:LUMCON:103:1,2010-06-13T06:00:00Z,30.1889,-90.1683,29.6,11111222 
LUMCON,ioos:station:LUMCON:103:1,2010-06-13T07:00:00Z,30.1889,-90.1683,29.3,11111222 
LUMCON,ioos:station:LUMCON:103:1,2010-06-13T08:00:00Z,30.1889,-90.1683,28.9,11111222 
LUMCON,ioos:station:LUMCON:103:1,2010-06-13T09:00:00Z,30.1889,-90.1683,28.6,11111222 
LUMCON,ioos:station:LUMCON:103:1,2010-06-13T10:00:00Z,30.1889,-90.1683,28.6,11111222 
LUMCON,ioos:station:LUMCON:103:1,2010-06-13T11:00:00Z,30.1889,-90.1683,28.2,11111222 
LUMCON,ioos:station:LUMCON:103:1,2010-06-13T12:00:00Z,30.1889,-90.1683,28.2,11111222 
LUMCON,ioos:station:LUMCON:103:1,2010-06-13T13:00:00Z,30.1889,-90.1683,28.8,11111222 
LUMCON,ioos:station:LUMCON:103:1,2010-06-13T14:00:00Z,30.1889,-90.1683,29.3,11111222 
LUMCON,ioos:station:LUMCON:103:1,2010-06-13T15:00:00Z,30.1889,-90.1683,30.1,11111222 
LUMCON,ioos:station:LUMCON:103:1,2010-06-13T16:00:00Z,30.1889,-90.1683,30.7,11111222 
LUMCON,ioos:station:LUMCON:103:1,2010-06-13T18:00:00Z,30.1889,-90.1683,30.5,11111222 
LUMCON,ioos:station:LUMCON:103:1,2010-06-13T19:00:00Z,30.1889,-90.1683,30.9,11111222 
LUMCON,ioos:station:LUMCON:103:1,2010-06-13T20:00:00Z,30.1889,-90.1683,31.1,11111222 
LUMCON,ioos:station:LUMCON:103:1,2010-06-13T21:00:00Z,30.1889,-90.1683,31.4,11111222 
LUMCON,ioos:station:LUMCON:103:1,2010-06-13T22:00:00Z,30.1889,-90.1683,31.7,11111222 
LUMCON,ioos:station:LUMCON:103:1,2010-06-13T23:00:00Z,30.1889,-90.1683,31.7,11111222 
LUMCON,ioos:station:LUMCON:103:1,2010-06-14T00:00:00Z,30.1889,-90.1683,31.3,11111222 
LUMCON,ioos:station:LUMCON:103:1,2010-06-14T01:00:00Z,30.1889,-90.1683,31.0,11111222 
LUMCON,ioos:station:LUMCON:103:1,2010-06-14T02:00:00Z,30.1889,-90.1683,30.9,11111222 
LUMCON,ioos:station:LUMCON:103:1,2010-06-14T03:00:00Z,30.1889,-90.1683,30.4,11111222 
LUMCON,ioos:station:LUMCON:103:1,2010-06-14T04:00:00Z,30.1889,-90.1683,30.2,11111222 
LUMCON,ioos:station:LUMCON:103:1,2010-06-14T05:00:00Z,30.1889,-90.1683,29.9,11111222 
LUMCON,ioos:station:LUMCON:103:1,2010-06-14T06:00:00Z,30.1889,-90.1683,29.4,11111222 
LUMCON,ioos:station:LUMCON:103:1,2010-06-14T07:00:00Z,30.1889,-90.1683,28.9,11111222 
LUMCON,ioos:station:LUMCON:103:1,2010-06-14T08:00:00Z,30.1889,-90.1683,28.7,11111222 
LUMCON,ioos:station:LUMCON:103:1,2010-06-14T09:00:00Z,30.1889,-90.1683,28.5,11111222 
LUMCON,ioos:station:LUMCON:103:1,2010-06-14T10:00:00Z,30.1889,-90.1683,28.3,11111222 
LUMCON,ioos:station:LUMCON:103:1,2010-06-14T11:00:00Z,30.1889,-90.1683,28.0,11111222 
LUMCON,ioos:station:LUMCON:103:1,2010-06-14T12:00:00Z,30.1889,-90.1683,28.0,11111222 
LUMCON,ioos:station:LUMCON:103:1,2010-06-14T22:00:00Z,30.1889,-90.1683,31.7,11111222 
LUMCON,ioos:station:LUMCON:103:1,2010-06-14T23:00:00Z,30.1889,-90.1683,31.5,11111222 
LUMCON,ioos:station:LUMCON:103:1,2010-06-15T00:00:00Z,30.1889,-90.1683,31.1,11111222 
LUMCON,ioos:station:LUMCON:103:1,2010-06-15T01:00:00Z,30.1889,-90.1683,30.8,11111222 
LUMCON,ioos:station:LUMCON:103:1,2010-06-15T02:00:00Z,30.1889,-90.1683,30.7,11111222 
LUMCON,ioos:station:LUMCON:103:1,2010-06-15T03:00:00Z,30.1889,-90.1683,30.5,11111222 
LUMCON,ioos:station:LUMCON:103:1,2010-06-15T04:00:00Z,30.1889,-90.1683,30.3,11111222 
LUMCON,ioos:station:LUMCON:103:1,2010-06-15T05:00:00Z,30.1889,-90.1683,30.1,11111222 
LUMCON,ioos:station:LUMCON:103:1,2010-06-15T06:00:00Z,30.1889,-90.1683,30.1,11111222 
LUMCON,ioos:station:LUMCON:103:1,2010-06-15T07:00:00Z,30.1889,-90.1683,29.3,11111222 
LUMCON,ioos:station:LUMCON:103:1,2010-06-15T08:00:00Z,30.1889,-90.1683,29.0,11111222 
LUMCON,ioos:station:LUMCON:103:1,2010-06-15T09:00:00Z,30.1889,-90.1683,28.4,11111222 
LUMCON,ioos:station:LUMCON:103:1,2010-06-15T10:00:00Z,30.1889,-90.1683,28.6,11111222 
LUMCON,ioos:station:LUMCON:103:1,2010-06-15T11:00:00Z,30.1889,-90.1683,28.5,11111222 
LUMCON,ioos:station:LUMCON:103:1,2010-06-16T00:00:00Z,30.1889,-90.1683,29.5,11111222 
LUMCON,ioos:station:LUMCON:103:1,2010-06-16T01:00:00Z,30.1889,-90.1683,29.2,11111222 
LUMCON,ioos:station:LUMCON:103:1,2010-06-16T02:00:00Z,30.1889,-90.1683,28.9,11111222 
LUMCON,ioos:station:LUMCON:103:1,2010-06-16T03:00:00Z,30.1889,-90.1683,29.1,11111222 
LUMCON,ioos:station:LUMCON:103:1,2010-06-16T04:00:00Z,30.1889,-90.1683,29.1,11111222 
LUMCON,ioos:station:LUMCON:103:1,2010-06-16T05:00:00Z,30.1889,-90.1683,29.2,11111222 
LUMCON,ioos:station:LUMCON:103:1,2010-06-16T06:00:00Z,30.1889,-90.1683,28.3,11111222 
LUMCON,ioos:station:LUMCON:103:1,2010-06-16T07:00:00Z,30.1889,-90.1683,28.7,11111222 
LUMCON,ioos:station:LUMCON:103:1,2010-06-16T08:00:00Z,30.1889,-90.1683,28.5,11111222 
LUMCON,ioos:station:LUMCON:103:1,2010-06-16T09:00:00Z,30.1889,-90.1683,28.5,11111222 
LUMCON,ioos:station:LUMCON:103:1,2010-06-16T10:00:00Z,30.1889,-90.1683,28.6,11111222 
LUMCON,ioos:station:LUMCON:103:1,2010-06-16T11:00:00Z,30.1889,-90.1683,28.7,11111222 
LUMCON,ioos:station:LUMCON:103:1,2010-06-16T12:00:00Z,30.1889,-90.1683,28.6,11111222 
LUMCON,ioos:station:LUMCON:103:1,2010-06-16T18:00:00Z,30.1889,-90.1683,30.6,11111222 
LUMCON,ioos:station:LUMCON:103:1,2010-06-16T22:00:00Z,30.1889,-90.1683,30.7,11111222 
LUMCON,ioos:station:LUMCON:103:1,2010-06-16T23:00:00Z,30.1889,-90.1683,30.7,11111222 
LUMCON,ioos:station:LUMCON:103:1,2010-06-17T00:00:00Z,30.1889,-90.1683,30.4,11111222 
LUMCON,ioos:station:LUMCON:103:1,2010-06-17T01:00:00Z,30.1889,-90.1683,29.9,11111222 
LUMCON,ioos:station:LUMCON:103:1,2010-06-17T02:00:00Z,30.1889,-90.1683,29.6,11111222 
LUMCON,ioos:station:LUMCON:103:1,2010-06-17T03:00:00Z,30.1889,-90.1683,29.6,11111222 
LUMCON,ioos:station:LUMCON:103:1,2010-06-17T04:00:00Z,30.1889,-90.1683,29.6,11111222 
LUMCON,ioos:station:LUMCON:103:1,2010-06-17T05:00:00Z,30.1889,-90.1683,29.2,11111222 
LUMCON,ioos:station:LUMCON:103:1,2010-06-17T06:00:00Z,30.1889,-90.1683,29.1,11111222 
LUMCON,ioos:station:LUMCON:103:1,2010-06-17T07:00:00Z,30.1889,-90.1683,28.9,11111222 
LUMCON,ioos:station:LUMCON:103:1,2010-06-17T08:00:00Z,30.1889,-90.1683,28.7,11111222 
LUMCON,ioos:station:LUMCON:103:1,2010-06-17T09:00:00Z,30.1889,-90.1683,28.5,11111222 
LUMCON,ioos:station:LUMCON:103:1,2010-06-17T10:00:00Z,30.1889,-90.1683,28.2,11111222 
LUMCON,ioos:station:LUMCON:103:1,2010-06-17T11:00:00Z,30.1889,-90.1683,28.3,11111222 
LUMCON,ioos:station:LUMCON:103:1,2010-06-17T12:00:00Z,30.1889,-90.1683,28.4,11111222 
LUMCON,ioos:station:LUMCON:103:1,2010-06-19T00:00:00Z,30.1889,-90.1683,30.2,11111222 
LUMCON,ioos:station:LUMCON:103:1,2010-06-19T01:00:00Z,30.1889,-90.1683,29.6,11111222 
LUMCON,ioos:station:LUMCON:103:1,2010-06-19T02:00:00Z,30.1889,-90.1683,29.2,11111222 
LUMCON,ioos:station:LUMCON:103:1,2010-06-19T03:00:00Z,30.1889,-90.1683,29.7,11111222 
LUMCON,ioos:station:LUMCON:103:1,2010-06-19T04:00:00Z,30.1889,-90.1683,28.8,11111222 
LUMCON,ioos:station:LUMCON:103:1,2010-06-19T05:00:00Z,30.1889,-90.1683,28.8,11111222 
LUMCON,ioos:station:LUMCON:103:1,2010-06-19T06:00:00Z,30.1889,-90.1683,28.8,11111222 
LUMCON,ioos:station:LUMCON:103:1,2010-06-19T07:00:00Z,30.1889,-90.1683,28.7,11111222 
LUMCON,ioos:station:LUMCON:103:1,2010-06-19T08:00:00Z,30.1889,-90.1683,28.9,11111222 
LUMCON,ioos:station:LUMCON:103:1,2010-06-19T09:00:00Z,30.1889,-90.1683,28.5,11111222 
LUMCON,ioos:station:LUMCON:103:1,2010-06-19T10:00:00Z,30.1889,-90.1683,28.4,11111222 